Time,TemperatureF,DewpointF,PressureIn,WindDirection,WindDirectionDegrees,WindSpeedMPH,WindSpeedGustMPH,Humidity,HourlyPrecipIn,Conditions,Clouds,dailyrainin,SoftwareType,DateUTC
2013-09-11 00:00:00,76.0,70.4,30.04,SW,222,0.0,3.0,83,0.00,,,0.00,WeatherCatV1.21B27,2013-09-11 04:00:00,
2013-09-11 00:05:00,75.8,70.2,30.04,SW,222,0.0,0.0,83,0.00,,,0.00,WeatherCatV1.21B27,2013-09-11 04:05:00,
2013-09-11 00:10:00,75.6,70.4,30.04,SW,222,0.0,1.0,84,0.00,,,0.00,WeatherCatV1.21B27,2013-09-11 04:10:00,
2013-09-11 00:15:00,75.3,70.1,30.04,SW,222,0.0,0.0,84,0.00,,,0.00,WeatherCatV1.21B27,2013-09-11 04:15:00,
2013-09-11 00:20:00,75.1,70.3,30.04,SW,222,0.0,0.0,85,0.00,,,0.00,WeatherCatV1.21B27,2013-09-11 04:20:00,
2013-09-11 00:45:00,74.2,70.4,30.05,SW,222,1.0,2.0,88,0.00,,,0.00,WeatherCatV1.21B27,2013-09-11 04:45:00,
2013-09-11 00:55:00,73.9,70.4,30.05,SW,236,0.0,0.0,89,0.00,,,0.00,WeatherCatV1.21B27,2013-09-11 04:55:00,
2013-09-11 01:00:00,74.0,70.2,30.05,SSW,210,3.0,3.0,88,0.00,,,0.00,WeatherCatV1.21B27,2013-09-11 05:00:00,
2013-09-11 01:05:00,74.0,70.2,30.05,SSW,210,1.0,1.0,88,0.00,,,0.00,WeatherCatV1.21B27,2013-09-11 05:05:00,
2013-09-11 01:10:00,74.2,70.4,30.05,SSW,210,0.0,1.0,88,0.00,,,0.00,WeatherCatV1.21B27,2013-09-11 05:10:00,
2013-09-11 01:15:00,74.2,70.4,30.04,SSW,210,0.0,0.0,88,0.00,,,0.00,WeatherCatV1.21B27,2013-09-11 05:15:00,
2013-09-11 01:20:00,74.0,70.2,30.04,West,267,0.0,3.0,88,0.00,,,0.00,WeatherCatV1.21B27,2013-09-11 05:20:00,
2013-09-11 01:25:00,74.0,70.2,30.04,West,267,0.0,0.0,88,0.00,,,0.00,WeatherCatV1.21B27,2013-09-11 05:25:00,
2013-09-11 01:30:00,74.0,70.2,30.04,SW,219,0.0,0.0,88,0.00,,,0.00,WeatherCatV1.21B27,2013-09-11 05:30:00,
2013-09-11 01:35:00,73.9,70.1,30.04,SW,219,0.0,0.0,88,0.00,,,0.00,WeatherCatV1.21B27,2013-09-11 05:35:00,
2013-09-11 01:40:00,73.9,70.4,30.04,SW,219,0.0,1.0,89,0.00,,,0.00,WeatherCatV1.21B27,2013-09-11 05:40:00,
2013-09-11 01:45:00,73.7,70.2,30.04,SW,219,0.0,0.0,89,0.00,,,0.00,WeatherCatV1.21B27,2013-09-11 05:45:00,
2013-09-11 01:50:00,73.7,70.6,30.04,West,264,0.0,3.0,90,0.00,,,0.00,WeatherCatV1.21B27,2013-09-11 05:50:00,
2013-09-11 01:55:00,73.7,70.6,30.04,WSW,255,0.0,0.0,90,0.00,,,0.00,WeatherCatV1.21B27,2013-09-11 05:55:00,
2013-09-11 02:00:00,73.7,70.6,30.04,West,269,0.0,3.0,90,0.00,,,0.00,WeatherCatV1.21B27,2013-09-11 06:00:00,
2013-09-11 02:05:00,73.9,70.4,30.04,South,188,0.0,0.0,89,0.00,,,0.00,WeatherCatV1.21B27,2013-09-11 06:05:00,
2013-09-11 02:10:00,73.9,70.4,30.04,South,188,0.0,0.0,89,0.00,,,0.00,WeatherCatV1.21B27,2013-09-11 06:10:00,
2013-09-11 02:15:00,73.9,70.4,30.04,SW,236,0.0,3.0,89,0.00,,,0.00,WeatherCatV1.21B27,2013-09-11 06:15:00,
2013-09-11 02:20:00,73.7,70.2,30.04,SW,236,0.0,2.0,89,0.00,,,0.00,WeatherCatV1.21B27,2013-09-11 06:20:00,
2013-09-11 02:25:00,73.7,70.6,30.04,SW,236,0.0,2.0,90,0.00,,,0.00,WeatherCatV1.21B27,2013-09-11 06:25:00,
2013-09-11 02:30:00,73.5,70.4,30.04,West,277,0.0,0.0,90,0.00,,,0.00,WeatherCatV1.21B27,2013-09-11 06:30:00,
2013-09-11 02:35:00,73.4,70.6,30.04,SSW,200,2.0,3.0,91,0.00,,,0.00,WeatherCatV1.21B27,2013-09-11 06:35:00,
2013-09-11 02:40:00,73.4,70.6,30.04,SSW,213,0.0,1.0,91,0.00,,,0.00,WeatherCatV1.21B27,2013-09-11 06:40:00,
2013-09-11 02:45:00,73.5,70.7,30.04,West,259,0.0,1.0,91,0.00,,,0.00,WeatherCatV1.21B27,2013-09-11 06:45:00,
2013-09-11 02:50:00,73.5,70.7,30.04,West,259,0.0,0.0,91,0.00,,,0.00,WeatherCatV1.21B27,2013-09-11 06:50:00,
2013-09-11 02:55:00,73.5,70.7,30.04,SSE,158,0.0,1.0,91,0.00,,,0.00,WeatherCatV1.21B27,2013-09-11 06:55:00,
2013-09-11 03:00:00,73.7,70.9,30.04,SSE,158,0.0,1.0,91,0.00,,,0.00,WeatherCatV1.21B27,2013-09-11 07:00:00,
2013-09-11 03:05:00,73.7,70.6,30.04,WSW,246,0.0,1.0,90,0.00,,,0.00,WeatherCatV1.21B27,2013-09-11 07:05:00,
2013-09-11 03:10:00,73.7,70.6,30.04,WSW,246,0.0,0.0,90,0.00,,,0.00,WeatherCatV1.21B27,2013-09-11 07:10:00,
2013-09-11 03:20:00,73.9,71.1,30.04,West,271,0.0,0.0,91,0.00,,,0.00,WeatherCatV1.21B27,2013-09-11 07:20:00,
2013-09-11 03:25:00,73.9,71.1,30.04,WSW,251,0.0,3.0,91,0.00,,,0.00,WeatherCatV1.21B27,2013-09-11 07:25:00,
2013-09-11 03:30:00,73.9,71.1,30.04,WSW,251,0.0,0.0,91,0.00,,,0.00,WeatherCatV1.21B27,2013-09-11 07:30:00,
2013-09-11 03:35:00,73.9,71.1,30.04,WSW,251,0.0,0.0,91,0.00,,,0.00,WeatherCatV1.21B27,2013-09-11 07:35:00,
2013-09-11 03:40:00,73.7,70.9,30.04,WSW,251,0.0,0.0,91,0.00,,,0.00,WeatherCatV1.21B27,2013-09-11 07:40:00,
2013-09-11 03:45:00,73.7,70.9,30.04,WSW,251,0.0,0.0,91,0.00,,,0.00,WeatherCatV1.21B27,2013-09-11 07:45:00,
2013-09-11 03:50:00,73.7,71.2,30.04,WSW,251,0.0,0.0,92,0.00,,,0.00,WeatherCatV1.21B27,2013-09-11 07:50:00,
2013-09-11 03:55:00,73.5,71.0,30.04,WSW,251,1.0,1.0,92,0.00,,,0.00,WeatherCatV1.21B27,2013-09-11 07:55:00,
2013-09-11 04:00:00,73.5,71.0,30.04,WSW,251,0.0,0.0,92,0.00,,,0.00,WeatherCatV1.21B27,2013-09-11 08:00:00,
2013-09-11 04:05:00,73.5,71.0,30.04,WSW,251,0.0,0.0,92,0.00,,,0.00,WeatherCatV1.21B27,2013-09-11 08:05:00,
2013-09-11 04:10:00,73.5,71.0,30.04,WSW,251,0.0,0.0,92,0.00,,,0.00,WeatherCatV1.21B27,2013-09-11 08:10:00,
2013-09-11 04:15:00,73.4,70.9,30.04,WSW,250,0.0,0.0,92,0.00,,,0.00,WeatherCatV1.21B27,2013-09-11 08:15:00,
2013-09-11 04:20:00,73.4,70.9,30.04,WSW,250,0.0,1.0,92,0.00,,,0.00,WeatherCatV1.21B27,2013-09-11 08:20:00,
2013-09-11 04:25:00,73.4,70.9,30.04,WSW,250,0.0,0.0,92,0.00,,,0.00,WeatherCatV1.21B27,2013-09-11 08:25:00,
2013-09-11 04:30:00,73.4,70.9,30.04,WSW,250,0.0,0.0,92,0.00,,,0.00,WeatherCatV1.21B27,2013-09-11 08:30:00,
2013-09-11 04:35:00,73.4,70.9,30.04,WSW,250,0.0,0.0,92,0.00,,,0.00,WeatherCatV1.21B27,2013-09-11 08:35:00,
2013-09-11 04:40:00,73.4,70.9,30.04,WSW,250,0.0,1.0,92,0.00,,,0.00,WeatherCatV1.21B27,2013-09-11 08:40:00,
2013-09-11 04:45:00,73.4,70.9,30.04,WSW,250,0.0,0.0,92,0.00,,,0.00,WeatherCatV1.21B27,2013-09-11 08:45:00,
2013-09-11 04:50:00,73.2,70.7,30.04,WSW,250,0.0,0.0,92,0.00,,,0.00,WeatherCatV1.21B27,2013-09-11 08:50:00,
2013-09-11 04:55:00,73.2,70.7,30.04,WSW,250,0.0,0.0,92,0.00,,,0.00,WeatherCatV1.21B27,2013-09-11 08:55:00,
2013-09-11 05:00:00,73.2,71.1,30.04,WSW,250,0.0,0.0,93,0.00,,,0.00,WeatherCatV1.21B27,2013-09-11 09:00:00,
2013-09-11 05:05:00,73.2,71.1,30.04,WSW,250,0.0,0.0,93,0.00,,,0.00,WeatherCatV1.21B27,2013-09-11 09:05:00,
2013-09-11 05:10:00,73.0,70.8,30.04,WSW,250,0.0,0.0,93,0.00,,,0.00,WeatherCatV1.21B27,2013-09-11 09:10:00,
2013-09-11 05:15:00,73.0,70.8,30.04,WSW,250,0.0,0.0,93,0.00,,,0.00,WeatherCatV1.21B27,2013-09-11 09:15:00,
2013-09-11 05:20:00,73.0,70.8,30.04,WSW,250,0.0,3.0,93,0.00,,,0.00,WeatherCatV1.21B27,2013-09-11 09:20:00,
2013-09-11 05:25:00,72.8,70.7,30.04,WSW,250,0.0,0.0,93,0.00,,,0.00,WeatherCatV1.21B27,2013-09-11 09:25:00,
2013-09-11 05:30:00,72.8,70.7,30.05,WSW,250,0.0,0.0,93,0.00,,,0.00,WeatherCatV1.21B27,2013-09-11 09:30:00,
2013-09-11 05:35:00,72.7,70.6,30.05,WSW,250,0.0,0.0,93,0.00,,,0.00,WeatherCatV1.21B27,2013-09-11 09:35:00,
2013-09-11 05:40:00,72.5,70.3,30.05,WSW,250,0.0,0.0,93,0.00,,,0.00,WeatherCatV1.21B27,2013-09-11 09:40:00,
2013-09-11 05:45:00,72.3,70.5,30.04,WSW,250,0.0,0.0,94,0.00,,,0.00,WeatherCatV1.21B27,2013-09-11 09:45:00,
2013-09-11 05:50:00,72.3,70.5,30.04,WSW,250,0.0,1.0,94,0.00,,,0.00,WeatherCatV1.21B27,2013-09-11 09:50:00,
2013-09-11 05:55:00,72.2,70.4,30.04,WSW,250,0.0,0.0,94,0.00,,,0.00,WeatherCatV1.21B27,2013-09-11 09:55:00,
2013-09-11 06:00:00,72.2,70.4,30.04,WSW,250,0.0,0.0,94,0.00,,,0.00,WeatherCatV1.21B27,2013-09-11 10:00:00,
2013-09-11 06:05:00,72.0,70.2,30.04,WSW,250,0.0,3.0,94,0.00,,,0.00,WeatherCatV1.21B27,2013-09-11 10:05:00,
2013-09-11 06:10:00,71.8,70.3,30.04,WSW,250,0.0,0.0,95,0.00,,,0.00,WeatherCatV1.21B27,2013-09-11 10:10:00,
2013-09-11 06:15:00,71.8,70.3,30.05,WSW,250,0.0,0.0,95,0.00,,,0.00,WeatherCatV1.21B27,2013-09-11 10:15:00,
2013-09-11 06:20:00,71.6,70.1,30.05,WSW,250,0.0,1.0,95,0.00,,,0.00,WeatherCatV1.21B27,2013-09-11 10:20:00,
2013-09-11 06:25:00,71.5,70.0,30.05,WSW,250,0.0,0.0,95,0.00,,,0.00,WeatherCatV1.21B27,2013-09-11 10:25:00,
2013-09-11 06:30:00,71.5,70.0,30.05,WSW,250,0.0,0.0,95,0.00,,,0.00,WeatherCatV1.21B27,2013-09-11 10:30:00,
2013-09-11 06:35:00,71.3,70.1,30.05,WSW,251,0.0,3.0,96,0.00,,,0.00,WeatherCatV1.21B27,2013-09-11 10:35:00,
2013-09-11 06:40:00,71.3,70.1,30.05,WSW,251,0.0,0.0,96,0.00,,,0.00,WeatherCatV1.21B27,2013-09-11 10:40:00,
2013-09-11 06:50:00,71.1,69.9,30.05,WSW,251,0.0,0.0,96,0.00,,,0.00,WeatherCatV1.21B27,2013-09-11 10:50:00,
2013-09-11 06:55:00,71.1,69.9,30.05,WSW,251,0.0,0.0,96,0.00,,,0.00,WeatherCatV1.21B27,2013-09-11 10:55:00,
2013-09-11 07:00:00,71.1,69.9,30.05,WSW,251,0.0,0.0,96,0.00,,,0.00,WeatherCatV1.21B27,2013-09-11 11:00:00,
2013-09-11 07:05:00,71.0,69.8,30.05,WSW,251,0.0,0.0,96,0.00,,,0.00,WeatherCatV1.21B27,2013-09-11 11:05:00,
2013-09-11 07:10:00,71.0,69.8,30.05,WSW,251,0.0,0.0,96,0.00,,,0.00,WeatherCatV1.21B27,2013-09-11 11:10:00,
2013-09-11 07:15:00,70.8,69.6,30.06,WSW,251,0.0,0.0,96,0.00,,,0.00,WeatherCatV1.21B27,2013-09-11 11:15:00,
2013-09-11 07:20:00,70.8,69.6,30.06,WSW,251,0.0,0.0,96,0.00,,,0.00,WeatherCatV1.21B27,2013-09-11 11:20:00,
2013-09-11 07:25:00,70.6,69.7,30.06,WSW,251,0.0,0.0,97,0.00,,,0.00,WeatherCatV1.21B27,2013-09-11 11:25:00,
2013-09-11 07:30:00,70.6,69.7,30.07,WSW,251,0.0,0.0,97,0.00,,,0.00,WeatherCatV1.21B27,2013-09-11 11:30:00,
2013-09-11 07:35:00,70.6,69.7,30.07,WSW,251,0.0,0.0,97,0.00,,,0.00,WeatherCatV1.21B27,2013-09-11 11:35:00,
2013-09-11 07:40:00,70.5,69.6,30.07,WSW,251,0.0,0.0,97,0.00,,,0.00,WeatherCatV1.21B27,2013-09-11 11:40:00,
2013-09-11 07:45:00,70.5,69.6,30.07,WSW,251,0.0,0.0,97,0.00,,,0.00,WeatherCatV1.21B27,2013-09-11 11:45:00,
2013-09-11 07:50:00,70.5,69.9,30.07,WSW,251,0.0,0.0,98,0.00,,,0.00,WeatherCatV1.21B27,2013-09-11 11:50:00,
2013-09-11 07:55:00,70.5,69.9,30.07,WSW,251,0.0,2.0,98,0.00,,,0.00,WeatherCatV1.21B27,2013-09-11 11:55:00,
2013-09-11 08:00:00,70.5,69.9,30.08,WSW,251,0.0,0.0,98,0.00,,,0.00,WeatherCatV1.21B27,2013-09-11 12:00:00,
2013-09-11 08:05:00,70.5,69.9,30.08,WSW,251,0.0,0.0,98,0.00,,,0.00,WeatherCatV1.21B27,2013-09-11 12:05:00,
2013-09-11 08:10:00,70.6,70.0,30.08,South,172,0.0,0.0,98,0.00,,,0.00,WeatherCatV1.21B27,2013-09-11 12:10:00,
2013-09-11 08:15:00,70.6,70.0,30.08,SW,234,0.0,4.0,98,0.00,,,0.00,WeatherCatV1.21B27,2013-09-11 12:15:00,
2013-09-11 08:20:00,70.6,70.3,30.08,SW,234,0.0,0.0,99,0.00,,,0.00,WeatherCatV1.21B27,2013-09-11 12:20:00,
2013-09-11 08:25:00,70.8,70.5,30.08,SW,234,0.0,0.0,99,0.00,,,0.00,WeatherCatV1.21B27,2013-09-11 12:25:00,
2013-09-11 08:30:00,70.8,70.5,30.09,SW,234,0.0,0.0,99,0.00,,,0.00,WeatherCatV1.21B27,2013-09-11 12:30:00,
2013-09-11 08:35:00,71.0,70.7,30.09,WNW,285,0.0,0.0,99,0.00,,,0.00,WeatherCatV1.21B27,2013-09-11 12:35:00,
2013-09-11 08:40:00,71.0,70.7,30.09,WNW,285,0.0,0.0,99,0.00,,,0.00,WeatherCatV1.21B27,2013-09-11 12:40:00,
2013-09-11 08:45:00,71.1,70.8,30.09,WSW,241,0.0,3.0,99,0.00,,,0.00,WeatherCatV1.21B27,2013-09-11 12:45:00,
2013-09-11 08:50:00,71.1,70.8,30.09,WSW,241,0.0,0.0,99,0.00,,,0.00,WeatherCatV1.21B27,2013-09-11 12:50:00,
2013-09-11 08:55:00,71.1,71.1,30.09,WSW,241,0.0,1.0,100,0.00,,,0.00,WeatherCatV1.21B27,2013-09-11 12:55:00,
2013-09-11 09:00:00,71.5,71.5,30.09,WSW,241,0.0,0.0,100,0.00,,,0.00,WeatherCatV1.21B27,2013-09-11 13:00:00,
2013-09-11 09:05:00,71.6,71.6,30.09,SW,230,0.0,0.0,100,0.00,,,0.00,WeatherCatV1.21B27,2013-09-11 13:05:00,
2013-09-11 09:10:00,71.6,71.6,30.09,SW,230,0.0,0.0,100,0.00,,,0.00,WeatherCatV1.21B27,2013-09-11 13:10:00,
2013-09-11 09:15:00,72.2,72.2,30.08,West,264,0.0,2.0,100,0.00,,,0.00,WeatherCatV1.21B27,2013-09-11 13:15:00,
2013-09-11 09:20:00,73.7,73.7,30.08,WSW,254,0.0,1.0,100,0.00,,,0.00,WeatherCatV1.21B27,2013-09-11 13:20:00,
2013-09-11 09:25:00,75.4,73.2,30.08,WSW,245,0.0,1.0,93,0.00,,,0.00,WeatherCatV1.21B27,2013-09-11 13:25:00,
2013-09-11 09:30:00,76.7,72.9,30.08,WNW,303,0.0,2.0,88,0.00,,,0.00,WeatherCatV1.21B27,2013-09-11 13:30:00,
2013-09-11 09:35:00,77.5,73.0,30.08,SSE,164,0.0,1.0,86,0.00,,,0.00,WeatherCatV1.21B27,2013-09-11 13:35:00,
2013-09-11 09:40:00,78.3,73.4,30.08,SW,231,0.0,0.0,85,0.00,,,0.00,WeatherCatV1.21B27,2013-09-11 13:40:00,
2013-09-11 09:45:00,78.6,73.7,30.08,West,273,0.0,5.0,85,0.00,,,0.00,WeatherCatV1.21B27,2013-09-11 13:45:00,
2013-09-11 09:50:00,79.3,73.7,30.08,SW,221,0.0,1.0,83,0.00,,,0.00,WeatherCatV1.21B27,2013-09-11 13:50:00,
2013-09-11 09:55:00,79.7,73.3,30.08,South,184,0.0,1.0,81,0.00,,,0.00,WeatherCatV1.21B27,2013-09-11 13:55:00,
2013-09-11 10:00:00,80.3,73.6,30.08,WSW,245,0.0,6.0,80,0.00,,,0.00,WeatherCatV1.21B27,2013-09-11 14:00:00,
2013-09-11 10:05:00,81.0,73.1,30.08,WNW,293,0.0,2.0,77,0.00,,,0.00,WeatherCatV1.21B27,2013-09-11 14:05:00,
2013-09-11 10:10:00,81.6,74.1,30.08,SSW,206,3.0,5.0,78,0.00,,,0.00,WeatherCatV1.21B27,2013-09-11 14:10:00,
2013-09-11 10:15:00,81.9,73.6,30.07,West,269,0.0,1.0,76,0.00,,,0.00,WeatherCatV1.21B27,2013-09-11 14:15:00,
2013-09-11 10:20:00,82.5,74.9,30.07,West,281,0.0,1.0,78,0.00,,,0.00,WeatherCatV1.21B27,2013-09-11 14:20:00,
2013-09-11 10:25:00,82.7,73.5,30.07,West,268,0.0,6.0,74,0.00,,,0.00,WeatherCatV1.21B27,2013-09-11 14:25:00,
2013-09-11 10:30:00,83.3,73.7,30.06,WSW,244,0.0,3.0,73,0.00,,,0.00,WeatherCatV1.21B27,2013-09-11 14:30:00,
2013-09-11 10:35:00,83.7,73.7,30.06,South,185,1.0,5.0,72,0.00,,,0.00,WeatherCatV1.21B27,2013-09-11 14:35:00,
2013-09-11 10:40:00,84.5,73.2,30.06,WSW,255,1.0,2.0,69,0.00,,,0.00,WeatherCatV1.21B27,2013-09-11 14:40:00,
2013-09-11 10:45:00,84.7,72.9,30.06,NNW,348,0.0,2.0,68,0.00,,,0.00,WeatherCatV1.21B27,2013-09-11 14:45:00,
2013-09-11 10:50:00,85.0,71.9,30.06,WSW,252,1.0,3.0,65,0.00,,,0.00,WeatherCatV1.21B27,2013-09-11 14:50:00,
2013-09-11 10:55:00,85.8,71.7,30.06,NW,311,0.0,5.0,63,0.00,,,0.00,WeatherCatV1.21B27,2013-09-11 14:55:00,
2013-09-11 11:00:00,85.8,72.6,30.06,WSW,247,0.0,0.0,65,0.00,,,0.00,WeatherCatV1.21B27,2013-09-11 15:00:00,
2013-09-11 11:05:00,86.2,71.6,30.06,WNW,297,5.0,6.0,62,0.00,,,0.00,WeatherCatV1.21B27,2013-09-11 15:05:00,
2013-09-11 11:10:00,86.8,72.7,30.06,WSW,246,0.0,1.0,63,0.00,,,0.00,WeatherCatV1.21B27,2013-09-11 15:10:00,
2013-09-11 11:15:00,87.4,72.3,30.06,SSW,209,1.0,4.0,61,0.00,,,0.00,WeatherCatV1.21B27,2013-09-11 15:15:00,
2013-09-11 11:20:00,87.9,72.2,30.06,SSE,157,0.0,2.0,60,0.00,,,0.00,WeatherCatV1.21B27,2013-09-11 15:20:00,
2013-09-11 11:25:00,88.1,70.9,30.06,West,263,3.0,7.0,57,0.00,,,0.00,WeatherCatV1.21B27,2013-09-11 15:25:00,
2013-09-11 11:30:00,88.7,74.0,30.05,SSE,160,4.0,4.0,62,0.00,,,0.00,WeatherCatV1.21B27,2013-09-11 15:30:00,
2013-09-11 11:35:00,88.7,72.5,30.05,West,259,0.0,3.0,59,0.00,,,0.00,WeatherCatV1.21B27,2013-09-11 15:35:00,
2013-09-11 11:40:00,88.7,72.0,30.05,SW,226,0.0,2.0,58,0.00,,,0.00,WeatherCatV1.21B27,2013-09-11 15:40:00,
2013-09-11 11:45:00,88.9,73.2,30.04,WNW,290,0.0,8.0,60,0.00,,,0.00,WeatherCatV1.21B27,2013-09-11 15:45:00,
2013-09-11 11:50:00,89.3,72.5,30.04,West,259,0.0,1.0,58,0.00,,,0.00,WeatherCatV1.21B27,2013-09-11 15:50:00,
2013-09-11 11:55:00,89.5,71.2,30.04,SW,221,0.0,3.0,55,0.00,,,0.00,WeatherCatV1.21B27,2013-09-11 15:55:00,
2013-09-11 12:00:00,89.7,71.3,30.04,South,180,4.0,4.0,55,0.00,,,0.00,WeatherCatV1.21B27,2013-09-11 16:00:00,
2013-09-11 12:05:00,89.5,72.2,30.04,ESE,117,0.0,1.0,57,0.00,,,0.00,WeatherCatV1.21B27,2013-09-11 16:05:00,
2013-09-11 12:10:00,89.1,71.3,30.04,South,186,1.0,1.0,56,0.00,,,0.00,WeatherCatV1.21B27,2013-09-11 16:10:00,
2013-09-11 12:15:00,89.5,72.2,30.04,SSE,154,2.0,2.0,57,0.00,,,0.00,WeatherCatV1.21B27,2013-09-11 16:15:00,
2013-09-11 12:20:00,90.4,72.0,30.04,WSW,237,4.0,6.0,55,0.00,,,0.00,WeatherCatV1.21B27,2013-09-11 16:20:00,
2013-09-11 12:25:00,90.4,71.4,30.04,SW,234,0.0,3.0,54,0.00,,,0.00,WeatherCatV1.21B27,2013-09-11 16:25:00,
2013-09-11 12:35:00,90.4,70.9,30.03,West,269,0.0,6.0,53,0.00,,,0.00,WeatherCatV1.21B27,2013-09-11 16:35:00,
2013-09-11 12:40:00,90.8,71.3,30.03,WSW,257,2.0,7.0,53,0.00,,,0.00,WeatherCatV1.21B27,2013-09-11 16:40:00,
2013-09-11 12:45:00,90.4,72.0,30.03,South,186,2.0,5.0,55,0.00,,,0.00,WeatherCatV1.21B27,2013-09-11 16:45:00,
2013-09-11 12:50:00,89.5,72.2,30.03,West,280,0.0,0.0,57,0.00,,,0.00,WeatherCatV1.21B27,2013-09-11 16:50:00,
2013-09-11 12:55:00,89.5,71.2,30.03,WNW,286,1.0,5.0,55,0.00,,,0.00,WeatherCatV1.21B27,2013-09-11 16:55:00,
2013-09-11 13:00:00,90.0,70.5,30.03,WSW,242,3.0,4.0,53,0.00,,,0.00,WeatherCatV1.21B27,2013-09-11 17:00:00,
2013-09-11 13:05:00,91.0,71.4,30.03,SW,230,3.0,6.0,53,0.00,,,0.00,WeatherCatV1.21B27,2013-09-11 17:05:00,
2013-09-11 13:10:00,92.1,71.9,30.03,WSW,248,0.0,7.0,52,0.00,,,0.00,WeatherCatV1.21B27,2013-09-11 17:10:00,
2013-09-11 13:15:00,92.5,70.5,30.02,SSE,163,0.0,6.0,49,0.00,,,0.00,WeatherCatV1.21B27,2013-09-11 17:15:00,
2013-09-11 13:20:00,92.8,71.4,30.02,SSE,150,4.0,4.0,50,0.00,,,0.00,WeatherCatV1.21B27,2013-09-11 17:20:00,
2013-09-11 13:25:00,91.9,68.7,30.02,West,261,0.0,4.0,47,0.00,,,0.00,WeatherCatV1.21B27,2013-09-11 17:25:00,
2013-09-11 13:30:00,92.3,69.7,30.02,SE,145,1.0,3.0,48,0.00,,,0.00,WeatherCatV1.21B27,2013-09-11 17:30:00,
2013-09-11 13:35:00,93.2,70.5,30.02,West,281,0.0,1.0,48,0.00,,,0.00,WeatherCatV1.21B27,2013-09-11 17:35:00,
2013-09-11 13:40:00,92.8,69.6,30.02,West,267,1.0,7.0,47,0.00,,,0.00,WeatherCatV1.21B27,2013-09-11 17:40:00,
2013-09-11 13:45:00,93.2,69.9,30.01,West,259,0.0,7.0,47,0.00,,,0.00,WeatherCatV1.21B27,2013-09-11 17:45:00,
2013-09-11 13:50:00,93.6,67.7,30.01,West,264,0.0,10.0,43,0.00,,,0.00,WeatherCatV1.21B27,2013-09-11 17:50:00,
2013-09-11 13:55:00,93.9,69.3,30.01,WSW,252,0.0,7.0,45,0.00,,,0.00,WeatherCatV1.21B27,2013-09-11 17:55:00,
2013-09-11 14:05:00,93.6,67.7,30.01,SW,222,1.0,4.0,43,0.00,,,0.00,WeatherCatV1.21B27,2013-09-11 18:05:00,
2013-09-11 14:10:00,92.8,67.6,30.01,West,275,1.0,13.0,44,0.00,,,0.00,WeatherCatV1.21B27,2013-09-11 18:10:00,
2013-09-11 14:15:00,93.0,67.1,30.01,West,272,3.0,10.0,43,0.00,,,0.00,WeatherCatV1.21B27,2013-09-11 18:15:00,
2013-09-11 14:20:00,94.3,70.3,30.01,SSW,200,0.0,3.0,46,0.00,,,0.00,WeatherCatV1.21B27,2013-09-11 18:20:00,
2013-09-11 14:25:00,94.1,67.4,30.01,WNW,285,1.0,9.0,42,0.00,,,0.00,WeatherCatV1.21B27,2013-09-11 18:25:00,
2013-09-11 14:30:00,93.4,65.4,30.00,NNW,333,11.0,11.0,40,0.00,,,0.00,WeatherCatV1.21B27,2013-09-11 18:30:00,
2013-09-11 14:35:00,93.2,67.3,30.00,WNW,283,0.0,6.0,43,0.00,,,0.00,WeatherCatV1.21B27,2013-09-11 18:35:00,
2013-09-11 14:40:00,93.2,65.2,30.00,WNW,285,0.0,6.0,40,0.00,,,0.00,WeatherCatV1.21B27,2013-09-11 18:40:00,
2013-09-11 14:45:00,94.3,68.3,29.99,West,267,1.0,9.0,43,0.00,,,0.00,WeatherCatV1.21B27,2013-09-11 18:45:00,
2013-09-11 14:55:00,92.1,68.9,29.99,NNW,327,6.0,6.0,47,0.00,,,0.00,WeatherCatV1.21B27,2013-09-11 18:55:00,
2013-09-11 15:00:00,93.4,67.5,29.99,North,3,2.0,10.0,43,0.00,,,0.00,WeatherCatV1.21B27,2013-09-11 19:00:00,
2013-09-11 15:05:00,94.1,66.8,29.99,WSW,250,1.0,10.0,41,0.00,,,0.00,WeatherCatV1.21B27,2013-09-11 19:05:00,
2013-09-11 15:10:00,94.5,67.1,29.99,West,262,0.0,6.0,41,0.00,,,0.00,WeatherCatV1.21B27,2013-09-11 19:10:00,
2013-09-11 15:15:00,94.7,65.8,29.99,WSW,250,1.0,4.0,39,0.00,,,0.00,WeatherCatV1.21B27,2013-09-11 19:15:00,
2013-09-11 15:20:00,95.2,64.8,29.99,SW,214,6.0,7.0,37,0.00,,,0.00,WeatherCatV1.21B27,2013-09-11 19:20:00,
2013-09-11 15:25:00,95.2,64.0,29.99,WSW,246,0.0,5.0,36,0.00,,,0.00,WeatherCatV1.21B27,2013-09-11 19:25:00,
2013-09-11 15:30:00,94.7,65.1,29.98,West,266,5.0,8.0,38,0.00,,,0.00,WeatherCatV1.21B27,2013-09-11 19:30:00,
2013-09-11 15:35:00,94.7,65.8,29.98,West,261,0.0,2.0,39,0.00,,,0.00,WeatherCatV1.21B27,2013-09-11 19:35:00,
2013-09-11 15:40:00,93.9,65.1,29.98,WSW,255,0.0,6.0,39,0.00,,,0.00,WeatherCatV1.21B27,2013-09-11 19:40:00,
2013-09-11 15:45:00,93.2,68.0,29.98,West,273,0.0,4.0,44,0.00,,,0.00,WeatherCatV1.21B27,2013-09-11 19:45:00,
2013-09-11 15:50:00,93.9,65.9,29.98,SSE,147,0.0,6.0,40,0.00,,,0.00,WeatherCatV1.21B27,2013-09-11 19:50:00,
2013-09-11 15:55:00,94.7,65.1,29.98,WNW,288,1.0,1.0,38,0.00,,,0.00,WeatherCatV1.21B27,2013-09-11 19:55:00,
2013-09-11 16:00:00,94.7,65.1,29.97,WNW,289,1.0,6.0,38,0.00,,,0.00,WeatherCatV1.21B27,2013-09-11 20:00:00,
2013-09-11 16:05:00,95.0,66.1,29.97,NW,315,3.0,10.0,39,0.00,,,0.00,WeatherCatV1.21B27,2013-09-11 20:05:00,
2013-09-11 16:10:00,95.0,66.8,29.97,WNW,285,0.0,2.0,40,0.00,,,0.00,WeatherCatV1.21B27,2013-09-11 20:10:00,
2013-09-11 16:15:00,94.3,68.3,29.96,NW,311,3.0,3.0,43,0.00,,,0.00,WeatherCatV1.21B27,2013-09-11 20:15:00,
2013-09-11 16:20:00,94.3,66.9,29.96,ESE,122,0.0,10.0,41,0.00,,,0.00,WeatherCatV1.21B27,2013-09-11 20:20:00,
2013-09-11 16:25:00,94.1,64.6,29.96,SW,235,0.0,5.0,38,0.00,,,0.00,WeatherCatV1.21B27,2013-09-11 20:25:00,
2013-09-11 16:30:00,94.1,65.3,29.96,West,262,3.0,7.0,39,0.00,,,0.00,WeatherCatV1.21B27,2013-09-11 20:30:00,
2013-09-11 16:35:00,93.4,65.4,29.96,SSW,213,1.0,6.0,40,0.00,,,0.00,WeatherCatV1.21B27,2013-09-11 20:35:00,
2013-09-11 16:40:00,93.2,68.0,29.96,SSW,213,0.0,4.0,44,0.00,,,0.00,WeatherCatV1.21B27,2013-09-11 20:40:00,
2013-09-11 16:45:00,92.8,64.9,29.95,WNW,301,3.0,3.0,40,0.00,,,0.00,WeatherCatV1.21B27,2013-09-11 20:45:00,
2013-09-11 16:50:00,92.5,64.6,29.95,West,274,3.0,13.0,40,0.00,,,0.00,WeatherCatV1.21B27,2013-09-11 20:50:00,
2013-09-11 16:55:00,92.5,66.0,29.95,West,269,1.0,4.0,42,0.00,,,0.00,WeatherCatV1.21B27,2013-09-11 20:55:00,
2013-09-11 17:05:00,91.9,64.8,29.95,West,277,2.0,14.0,41,0.00,,,0.00,WeatherCatV1.21B27,2013-09-11 21:05:00,
2013-09-11 17:10:00,92.1,65.0,29.95,West,276,0.0,4.0,41,0.00,,,0.00,WeatherCatV1.21B27,2013-09-11 21:10:00,
2013-09-11 17:15:00,91.7,65.3,29.95,WNW,284,3.0,6.0,42,0.00,,,0.00,WeatherCatV1.21B27,2013-09-11 21:15:00,
2013-09-11 17:20:00,91.2,68.1,29.95,WSW,257,2.0,6.0,47,0.00,,,0.00,WeatherCatV1.21B27,2013-09-11 21:20:00,
2013-09-11 17:25:00,91.0,67.9,29.95,WSW,241,0.0,5.0,47,0.00,,,0.00,WeatherCatV1.21B27,2013-09-11 21:25:00,
2013-09-11 17:30:00,91.2,66.2,29.95,WSW,252,1.0,4.0,44,0.00,,,0.00,WeatherCatV1.21B27,2013-09-11 21:30:00,
2013-09-11 17:35:00,91.2,66.8,29.95,NW,315,3.0,9.0,45,0.00,,,0.00,WeatherCatV1.21B27,2013-09-11 21:35:00,
2013-09-11 17:40:00,91.2,66.8,29.95,WNW,288,3.0,4.0,45,0.00,,,0.00,WeatherCatV1.21B27,2013-09-11 21:40:00,
2013-09-11 17:45:00,91.2,65.5,29.95,WNW,291,4.0,9.0,43,0.00,,,0.00,WeatherCatV1.21B27,2013-09-11 21:45:00,
2013-09-11 17:50:00,91.0,66.7,29.95,NW,326,2.0,8.0,45,0.00,,,0.00,WeatherCatV1.21B27,2013-09-11 21:50:00,
2013-09-11 17:55:00,90.8,67.1,29.95,West,271,2.0,11.0,46,0.00,,,0.00,WeatherCatV1.21B27,2013-09-11 21:55:00,
2013-09-11 18:00:00,90.4,67.4,29.95,SSE,158,1.0,3.0,47,0.00,,,0.00,WeatherCatV1.21B27,2013-09-11 22:00:00,
2013-09-11 18:05:00,90.0,67.6,29.95,West,264,0.0,10.0,48,0.00,,,0.00,WeatherCatV1.21B27,2013-09-11 22:05:00,
2013-09-11 18:10:00,89.5,67.2,29.95,West,276,0.0,12.0,48,0.00,,,0.00,WeatherCatV1.21B27,2013-09-11 22:10:00,
2013-09-11 18:15:00,89.3,68.2,29.95,West,259,0.0,5.0,50,0.00,,,0.00,WeatherCatV1.21B27,2013-09-11 22:15:00,
2013-09-11 18:20:00,88.9,68.4,29.95,WSW,257,0.0,1.0,51,0.00,,,0.00,WeatherCatV1.21B27,2013-09-11 22:20:00,
2013-09-11 18:30:00,88.1,67.7,29.95,West,273,0.0,0.0,51,0.00,,,0.00,WeatherCatV1.21B27,2013-09-11 22:30:00,
2013-09-11 18:35:00,87.7,68.4,29.95,South,186,0.0,0.0,53,0.00,,,0.00,WeatherCatV1.21B27,2013-09-11 22:35:00,
2013-09-11 18:40:00,87.2,67.4,29.95,West,259,0.0,1.0,52,0.00,,,0.00,WeatherCatV1.21B27,2013-09-11 22:40:00,
2013-09-11 18:45:00,86.8,70.7,29.95,WSW,258,0.0,0.0,59,0.00,,,0.00,WeatherCatV1.21B27,2013-09-11 22:45:00,
2013-09-11 18:50:00,86.4,70.8,29.95,SW,221,0.0,1.0,60,0.00,,,0.00,WeatherCatV1.21B27,2013-09-11 22:50:00,
2013-09-11 18:55:00,86.0,69.0,29.95,SW,221,0.0,1.0,57,0.00,,,0.00,WeatherCatV1.21B27,2013-09-11 22:55:00,
2013-09-11 19:00:00,85.6,70.6,29.95,SW,221,0.0,2.0,61,0.00,,,0.00,WeatherCatV1.21B27,2013-09-11 23:00:00,
2013-09-11 19:05:00,85.2,69.2,29.95,SW,221,0.0,0.0,59,0.00,,,0.00,WeatherCatV1.21B27,2013-09-11 23:05:00,
2013-09-11 19:10:00,85.0,70.0,29.95,SW,221,0.0,0.0,61,0.00,,,0.00,WeatherCatV1.21B27,2013-09-11 23:10:00,
2013-09-11 19:15:00,84.7,70.7,29.95,SW,221,0.0,0.0,63,0.00,,,0.00,WeatherCatV1.21B27,2013-09-11 23:15:00,
2013-09-11 19:20:00,84.3,70.3,29.95,SW,221,0.0,0.0,63,0.00,,,0.00,WeatherCatV1.21B27,2013-09-11 23:20:00,
2013-09-11 19:25:00,84.1,70.1,29.95,SW,221,0.0,0.0,63,0.00,,,0.00,WeatherCatV1.21B27,2013-09-11 23:25:00,
2013-09-11 19:30:00,83.9,69.0,29.95,SW,221,0.0,0.0,61,0.00,,,0.00,WeatherCatV1.21B27,2013-09-11 23:30:00,
2013-09-11 19:35:00,83.5,68.6,29.95,SW,221,0.0,0.0,61,0.00,,,0.00,WeatherCatV1.21B27,2013-09-11 23:35:00,
2013-09-11 19:40:00,82.9,68.5,29.95,West,267,0.0,0.0,62,0.00,,,0.00,WeatherCatV1.21B27,2013-09-11 23:40:00,
2013-09-11 19:45:00,82.5,67.7,29.96,West,267,0.0,0.0,61,0.00,,,0.00,WeatherCatV1.21B27,2013-09-11 23:45:00,
2013-09-11 19:50:00,81.9,67.6,29.96,West,267,0.0,0.0,62,0.00,,,0.00,WeatherCatV1.21B27,2013-09-11 23:50:00,
2013-09-11 19:55:00,81.4,66.6,29.96,West,267,0.0,0.0,61,0.00,,,0.00,WeatherCatV1.21B27,2013-09-11 23:55:00,
2013-09-11 20:00:00,81.0,66.7,29.96,West,267,0.0,0.0,62,0.00,,,0.00,WeatherCatV1.21B27,2013-09-12 00:00:00,
2013-09-11 20:05:00,80.5,67.2,29.96,West,267,0.0,0.0,64,0.00,,,0.00,WeatherCatV1.21B27,2013-09-12 00:05:00,
2013-09-11 20:10:00,80.1,66.3,29.96,West,269,0.0,1.0,63,0.00,,,0.00,WeatherCatV1.21B27,2013-09-12 00:10:00,
2013-09-11 20:15:00,80.3,67.0,29.98,West,269,0.0,0.0,64,0.00,,,0.00,WeatherCatV1.21B27,2013-09-12 00:15:00,
2013-09-11 20:20:00,80.1,66.8,29.98,West,269,0.0,0.0,64,0.00,,,0.00,WeatherCatV1.21B27,2013-09-12 00:20:00,
2013-09-11 20:25:00,80.1,67.2,29.98,West,269,0.0,1.0,65,0.00,,,0.00,WeatherCatV1.21B27,2013-09-12 00:25:00,
2013-09-11 20:30:00,79.9,67.5,29.98,West,269,0.0,0.0,66,0.00,,,0.00,WeatherCatV1.21B27,2013-09-12 00:30:00,
2013-09-11 20:35:00,79.7,67.8,29.98,West,269,0.0,0.0,67,0.00,,,0.00,WeatherCatV1.21B27,2013-09-12 00:35:00,
2013-09-11 20:40:00,79.2,68.1,29.98,West,269,0.0,1.0,69,0.00,,,0.00,WeatherCatV1.21B27,2013-09-12 00:40:00,
2013-09-11 20:45:00,78.8,68.2,29.98,West,269,0.0,0.0,70,0.00,,,0.00,WeatherCatV1.21B27,2013-09-12 00:45:00,
2013-09-11 20:50:00,78.3,68.5,29.98,West,269,0.0,0.0,72,0.00,,,0.00,WeatherCatV1.21B27,2013-09-12 00:50:00,
2013-09-11 20:55:00,77.9,68.1,29.98,West,269,0.0,0.0,72,0.00,,,0.00,WeatherCatV1.21B27,2013-09-12 00:55:00,
2013-09-11 21:00:00,77.5,68.1,29.98,West,269,0.0,0.0,73,0.00,,,0.00,WeatherCatV1.21B27,2013-09-12 01:00:00,
2013-09-11 21:05:00,77.2,67.9,29.98,West,269,0.0,0.0,73,0.00,,,0.00,WeatherCatV1.21B27,2013-09-12 01:05:00,
2013-09-11 21:10:00,77.0,68.1,29.98,West,269,0.0,0.0,74,0.00,,,0.00,WeatherCatV1.21B27,2013-09-12 01:10:00,
2013-09-11 21:15:00,76.7,68.2,29.98,West,269,0.0,0.0,75,0.00,,,0.00,WeatherCatV1.21B27,2013-09-12 01:15:00,
2013-09-11 21:20:00,76.3,68.2,29.98,West,269,0.0,0.0,76,0.00,,,0.00,WeatherCatV1.21B27,2013-09-12 01:20:00,
2013-09-11 21:25:00,76.0,68.6,29.98,West,269,0.0,0.0,78,0.00,,,0.00,WeatherCatV1.21B27,2013-09-12 01:25:00,
2013-09-11 21:30:00,75.8,68.8,29.99,West,269,0.0,0.0,79,0.00,,,0.00,WeatherCatV1.21B27,2013-09-12 01:30:00,
2013-09-11 21:35:00,75.4,68.4,29.99,West,269,0.0,0.0,79,0.00,,,0.00,WeatherCatV1.21B27,2013-09-12 01:35:00,
2013-09-11 21:40:00,75.1,68.5,29.99,West,269,0.0,0.0,80,0.00,,,0.00,WeatherCatV1.21B27,2013-09-12 01:40:00,
2013-09-11 21:45:00,74.9,68.3,29.99,West,269,0.0,0.0,80,0.00,,,0.00,WeatherCatV1.21B27,2013-09-12 01:45:00,
2013-09-11 21:50:00,74.7,68.5,29.99,West,269,0.0,0.0,81,0.00,,,0.00,WeatherCatV1.21B27,2013-09-12 01:50:00,
2013-09-11 21:55:00,74.4,68.5,29.99,West,269,0.0,0.0,82,0.00,,,0.00,WeatherCatV1.21B27,2013-09-12 01:55:00,
2013-09-11 22:00:00,74.2,68.3,29.99,West,269,0.0,0.0,82,0.00,,,0.00,WeatherCatV1.21B27,2013-09-12 02:00:00,
2013-09-11 22:05:00,74.0,68.5,29.99,West,269,0.0,0.0,83,0.00,,,0.00,WeatherCatV1.21B27,2013-09-12 02:05:00,
2013-09-11 22:10:00,73.7,68.9,29.99,West,269,0.0,0.0,85,0.00,,,0.00,WeatherCatV1.21B27,2013-09-12 02:10:00,
2013-09-11 22:15:00,73.5,68.7,29.98,West,269,0.0,0.0,85,0.00,,,0.00,WeatherCatV1.21B27,2013-09-12 02:15:00,
2013-09-11 22:20:00,73.4,68.6,29.98,West,269,0.0,0.0,85,0.00,,,0.00,WeatherCatV1.21B27,2013-09-12 02:20:00,
2013-09-11 22:25:00,73.2,68.8,29.98,West,269,0.0,0.0,86,0.00,,,0.00,WeatherCatV1.21B27,2013-09-12 02:25:00,
2013-09-11 22:30:00,73.0,68.9,29.98,West,269,0.0,0.0,87,0.00,,,0.00,WeatherCatV1.21B27,2013-09-12 02:30:00,
2013-09-11 22:35:00,72.8,68.7,29.98,West,269,0.0,0.0,87,0.00,,,0.00,WeatherCatV1.21B27,2013-09-12 02:35:00,
2013-09-11 22:40:00,72.7,68.9,29.98,West,269,0.0,0.0,88,0.00,,,0.00,WeatherCatV1.21B27,2013-09-12 02:40:00,
2013-09-11 22:45:00,72.5,68.7,29.99,West,269,0.0,0.0,88,0.00,,,0.00,WeatherCatV1.21B27,2013-09-12 02:45:00,
2013-09-11 22:50:00,72.5,68.7,29.99,West,269,0.0,0.0,88,0.00,,,0.00,WeatherCatV1.21B27,2013-09-12 02:50:00,
2013-09-11 22:55:00,72.3,68.9,29.99,West,269,0.0,0.0,89,0.00,,,0.00,WeatherCatV1.21B27,2013-09-12 02:55:00,
2013-09-11 23:00:00,72.2,68.8,29.99,West,269,0.0,0.0,89,0.00,,,0.00,WeatherCatV1.21B27,2013-09-12 03:00:00,
2013-09-11 23:05:00,72.2,69.1,29.99,West,269,0.0,0.0,90,0.00,,,0.00,WeatherCatV1.21B27,2013-09-12 03:05:00,
2013-09-11 23:10:00,72.0,69.2,29.99,West,269,0.0,0.0,91,0.00,,,0.00,WeatherCatV1.21B27,2013-09-12 03:10:00,
2013-09-11 23:15:00,71.8,69.3,29.98,West,269,0.0,0.0,92,0.00,,,0.00,WeatherCatV1.21B27,2013-09-12 03:15:00,
2013-09-11 23:20:00,71.6,69.2,29.98,West,269,0.0,0.0,92,0.00,,,0.00,WeatherCatV1.21B27,2013-09-12 03:20:00,
2013-09-11 23:25:00,71.6,69.5,29.98,West,269,0.0,0.0,93,0.00,,,0.00,WeatherCatV1.21B27,2013-09-12 03:25:00,
2013-09-11 23:30:00,71.5,69.4,29.98,West,269,0.0,0.0,93,0.00,,,0.00,WeatherCatV1.21B27,2013-09-12 03:30:00,
2013-09-11 23:35:00,71.3,69.2,29.98,West,269,0.0,0.0,93,0.00,,,0.00,WeatherCatV1.21B27,2013-09-12 03:35:00,
2013-09-11 23:40:00,71.1,69.0,29.98,West,269,0.0,0.0,93,0.00,,,0.00,WeatherCatV1.21B27,2013-09-12 03:40:00,
2013-09-11 23:45:00,71.0,69.2,29.98,West,269,0.0,0.0,94,0.00,,,0.00,WeatherCatV1.21B27,2013-09-12 03:45:00,
2013-09-11 23:50:00,71.0,69.2,29.98,West,269,0.0,0.0,94,0.00,,,0.00,WeatherCatV1.21B27,2013-09-12 03:50:00,
2013-09-11 23:55:00,70.8,69.0,29.98,West,269,0.0,0.0,94,0.00,,,0.00,WeatherCatV1.21B27,2013-09-12 03:55:00,